[[{"header":{"parameterUnit":"m.s-1","parameterCategory":1,"la1":30.2991,"la2":30.254,"lo1":-89.0895,"lo2":-89.0444,"dy":0.0017,"dx":0.0017,"nx":28,"ny":28,"refTime":"2024-04-29T03:00:00:Z","depth":0,"parameterNumber":2,"parameterNumberName":"U-component_of_WINDS"},"data":[0,0,0,0,0,0,0,0,0,0,0,0,0,0,0,0,0,0,0,0,0,0,0,0,0,0,0,0,0,0,0,0,0,0,0,0,0,0,0,0,0,0,0,0,0,0,0,0,0,0,0,0,0,0,0,0,0,0,-4.1127,-4.1128,0,-4.1256,-4.1257,-4.1259,-4.1302,-4.1302,-4.1301,-4.13,-4.1433,-4.1437,-4.1441,0,0,0,0,0,0,0,0,0,0,0,0,0,-4.092,-4.0923,-4.1127,-4.1128,-4.113,-4.1256,-4.1257,-4.1259,-4.1302,-4.1301,-4.1301,-4.13,-4.1432,-4.1437,-4.1442,0,0,0,0,0,0,0,0,0,0,0,0,0,-4.1025,-4.0925,-4.1126,-4.1167,-4.1171,-4.1255,-4.1257,-4.126,-4.1302,-4.1301,-4.1301,-4.13,-4.1431,-4.1436,-4.1442,-4.1496,0,0,-4.1461,-4.1464,0,0,0,0,0,0,0,0,-4.1019,-4.1033,-4.1159,-4.1164,-4.117,-4.1262,-4.1233,-4.1339,-4.1302,-4.1253,-4.13,-4.13,-4.1377,-4.1388,-4.1414,-4.1502,-4.1508,-4.1461,-4.1465,-4.1468,-4.1469,0,0,0,0,0,0,0,-4.1012,-4.1028,-4.1178,-4.1161,-4.1167,-4.1179,-4.1193,-4.1253,-4.1318,-4.1257,-4.126,-4.1275,-4.138,-4.1408,-4.1417,-4.151,-4.1461,-4.1467,-4.147,-4.1473,-4.1651,-4.1652,0,0,0,0,0,0,-4.0998,-4.1021,-4.1174,-4.1182,-4.1091,-4.1183,-4.1199,-4.1233,-4.1317,-4.1329,-4.1276,-4.1277,-4.1398,-4.141,-4.1422,-4.149,-4.1468,-4.1473,-4.1477,-4.1649,-4.1651,-4.1652,0,0,0,0,0,0,-4.0993,-4.1011,-4.1169,-4.1103,-4.1123,-4.1188,-4.1226,-4.1236,-4.1264,-4.1331,-4.1343,-4.1292,-4.1397,-4.1413,-4.1477,-4.1495,-4.1476,-4.1482,-4.1648,-4.165,-4.1651,-4.1627,0,0,0,0,0,0,-4.0987,-4.1009,-4.1029,-4.1103,-4.1127,-4.1221,-4.1227,-4.1239,-4.1274,-4.1277,-4.135,-4.1361,-4.1398,-4.1468,-4.1483,-4.1503,-4.1486,-4.1647,-4.1649,-4.1651,-4.1627,-4.1628,-4.1629,0,0,0,0,0,-4.0979,-4.1017,-4.103,-4.1048,-4.1153,-4.1222,-4.1236,-4.1277,-4.1275,-4.1297,-4.134,-4.1359,-4.1491,-4.1474,-4.1492,-4.1514,-4.1646,-4.1648,-4.1651,-4.1626,-4.1628,-4.1629,0,0,0,0,0,0,-4.0944,-4.1027,-4.1042,-4.1105,-4.1156,-4.1229,-4.1257,-4.1277,-4.133,-4.133,-4.138,-4.1396,-4.1456,-4.1492,-4.1472,-4.1571,-4.157,-4.1576,-4.1545,-4.1547,-4.1548,-4.1538,-4.1491,0,0,0,0,0,-4.0944,-4.0992,-4.1063,-4.1111,-4.1136,-4.1192,-4.1224,-4.1251,-4.1306,-4.1328,-4.1376,-4.1429,-4.1483,-4.1517,-4.1571,-4.1633,-4.165,-4.1657,-4.1658,-4.1659,-4.1663,-4.1699,-4.1703,-4.166,-4.166,-4.166,0,0,-4.0943,-4.0995,-4.1022,-4.1105,-4.1148,-4.1197,-4.121,-4.1261,-4.1299,-4.1336,-4.1399,-4.1437,-4.15,-4.1563,-4.1594,-4.1595,-4.1679,-4.1662,-4.1662,-4.1666,-4.1702,-4.1706,-4.171,-4.1662,-4.1661,-4.1661,0,0,-4.0967,-4.1011,-4.1056,-4.1099,-4.1164,-4.1201,-4.1212,-4.1283,-4.1309,-4.1374,-4.1403,-4.1449,-4.154,-4.1584,-4.1618,-4.1661,-4.168,-4.1677,-4.1682,-4.1717,-4.172,-4.1724,-4.1739,-4.1743,-4.1681,-4.1681,-4.1681,0,-4.0958,-4.1033,-4.1077,-4.1127,-4.1163,-4.12,-4.1247,-4.1287,-4.1365,-4.139,-4.139,-4.1507,-4.1551,-4.1626,-4.1636,-4.1663,-4.1678,-4.1668,-4.1716,-4.172,-4.1724,-4.1739,-4.1744,-4.1681,-4.1681,-4.1681,-4.1681,0,-4.1019,-4.107,-4.11,-4.1175,-4.1214,-4.1263,-4.1315,-4.135,-4.1375,-4.1413,-4.1479,-4.1534,-4.16,-4.162,-4.1645,-4.1699,-4.1697,-4.1706,-4.1706,-4.1726,-4.1741,-4.1747,-4.1679,-4.168,-4.168,-4.168,0,0,-4.1022,-4.1122,-4.1132,-4.1167,-4.1242,-4.1283,-4.1334,-4.1398,-4.1427,-4.1481,-4.1525,-4.1603,-4.1612,-4.1651,-4.1681,-4.1712,-4.1743,-4.1718,-4.172,-4.172,-4.1806,-4.1797,-4.1803,-4.1757,-4.1758,-4.1759,-4.18,0,-4.1055,-4.1146,-4.1188,-4.1261,-4.1309,-4.1346,-4.1391,-4.1442,-4.1479,-4.1527,-4.1569,-4.1622,-4.1631,-4.1655,-4.1687,-4.1732,-4.176,-4.173,-4.1798,-4.18,-4.1779,-4.1811,-4.1802,-4.1838,-4.1806,-4.1807,-4.1808,0,-4.1105,-4.1159,-4.1236,-4.1306,-4.1328,-4.1367,-4.143,-4.1475,-4.1534,-4.156,-4.1604,-4.1633,-4.1689,-4.1686,-4.1764,-4.1742,-4.1774,-4.18,-4.1803,-4.1809,-4.1804,-4.1818,-4.1851,-4.1855,-4.1818,-4.1817,-4.1816,0,-4.1099,-4.1191,-4.1249,-4.1278,-4.1361,-4.1388,-4.1424,-4.1483,-4.1519,-4.1575,-4.1599,-4.166,-4.1693,-4.1741,-4.1787,-4.178,-4.186,-4.1861,-4.1883,-4.1882,-4.1896,-4.1895,-4.1934,-4.1918,-4.1918,-4.1918,-4.1918,0,-4.1131,-4.1176,-4.1247,-4.1283,-4.1336,-4.1385,-4.1436,-4.1475,-4.1528,-4.1572,-4.1609,-4.165,-4.1709,-4.1758,-4.1795,-4.1854,-4.1869,-4.1891,-4.19,-4.1887,-4.1884,-4.1907,-4.1905,-4.192,-4.1919,-4.1919,-4.1919,0,-4.1132,-4.1181,-4.1247,-4.1321,-4.1341,-4.1377,-4.1441,-4.1477,-4.1517,-4.1573,-4.1589,-4.1652,-4.1712,-4.1763,-4.1842,-4.1867,-4.1928,-4.1939,-4.1907,-4.1911,-4.193,-4.1927,-4.1984,-4.1994,-4.1973,-4.1973,-4.1973,0,-4.1148,-4.1184,-4.1262,-4.1295,-4.133,-4.1382,-4.1419,-4.1469,-4.1507,-4.1578,-4.1607,-4.1669,-4.1721,-4.1816,-4.1869,-4.193,-4.1942,-4.1958,-4.1951,-4.1938,-4.1942,-4.1939,-4.1942,-4.1958,-4.1958,-4.1958,-4.1958,0,-4.1172,-4.1195,-4.1247,-4.1307,-4.1351,-4.1401,-4.1453,-4.1477,-4.1538,-4.1578,-4.1639,-4.168,-4.1761,-4.1823,-4.189,-4.1928,-4.1953,-4.196,-4.1968,-4.1954,-4.1934,-4.1945,-4.1907,-4.1958,-4.1958,-4.1958,-4.1958,-4.1958,-4.1181,-4.1215,-4.1275,-4.1332,-4.1376,-4.1424,-4.1462,-4.1507,-4.1559,-4.1628,-4.1655,-4.1718,-4.1779,-4.1871,-4.191,-4.1961,-4.1964,-4.1976,-4.1979,-4.1981,-4.1978,-4.1927,-4.1973,-4.1973,-4.1973,-4.1973,-4.1973,0,-4.1206,-4.1247,-4.1299,-4.137,-4.1415,-4.1435,-4.1493,-4.1529,-4.1584,-4.1638,-4.1689,-4.176,-4.1821,-4.1879,-4.1943,-4.1972,-4.1986,-4.1987,-4.1985,-4.1994,-4.1972,-4.1958,-4.1976,-4.1976,-4.1976,-4.1976,-4.1976,-4.1976,-4.1224,-4.1283,-4.1313,-4.1394,-4.1436,-4.1497,-4.1528,-4.1573,-4.1616,-4.1694,-4.1744,-4.1782,-4.1838,-4.1907,-4.1963,-4.1979,-4.2001,-4.1999,-4.2018,-4.1996,-4.1995,-4.1994,-4.1981,-4.2004,-4.2004,-4.2036,-4.2036,-4.2036]},{"header":{"parameterUnit":"m.s-1","parameterCategory":1,"la1":30.2991,"la2":30.254,"lo1":-89.0895,"lo2":-89.0444,"dy":0.0017,"dx":0.0017,"nx":28,"ny":28,"refTime":"2024-04-29T03:00:00:Z","depth":0,"parameterNumber":3,"parameterNumberName":"V-component_of_WINDS"},"data":[0,0,0,0,0,0,0,0,0,0,0,0,0,0,0,0,0,0,0,0,0,0,0,0,0,0,0,0,0,0,0,0,0,0,0,0,0,0,0,0,0,0,0,0,0,0,0,0,0,0,0,0,0,0,0,0,0,0,5.2642,5.2643,0,5.2713,5.2714,5.2714,5.2727,5.2727,5.2726,5.2725,5.2794,5.2797,5.2799,0,0,0,0,0,0,0,0,0,0,0,0,0,5.2516,5.2518,5.2642,5.2643,5.2644,5.2713,5.2714,5.2715,5.2727,5.2727,5.2726,5.2725,5.2793,5.2796,5.2799,0,0,0,0,0,0,0,0,0,0,0,0,0,5.2577,5.2519,5.2642,5.2659,5.2661,5.2712,5.2714,5.2715,5.2727,5.2727,5.2726,5.2725,5.2793,5.2796,5.28,5.2838,0,0,5.281,5.2812,0,0,0,0,0,0,0,0,5.2574,5.2582,5.2655,5.2657,5.266,5.271,5.2694,5.2756,5.2728,5.2702,5.2725,5.2724,5.2767,5.2772,5.2787,5.2842,5.2845,5.2811,5.2813,5.2814,5.2815,0,0,0,0,0,0,0,5.2569,5.2579,5.267,5.2656,5.2659,5.2662,5.267,5.2706,5.2738,5.2704,5.2705,5.2714,5.2768,5.2784,5.2789,5.2846,5.2811,5.2814,5.2816,5.2817,5.2938,5.2939,0,0,0,0,0,0,5.2563,5.2575,5.2668,5.2672,5.2614,5.2665,5.2673,5.2695,5.2738,5.2744,5.2714,5.2714,5.2778,5.2785,5.2792,5.2841,5.2814,5.2818,5.282,5.2937,5.2938,5.2939,0,0,0,0,0,0,5.256,5.2571,5.2665,5.2624,5.2636,5.2668,5.2692,5.2697,5.2713,5.2746,5.2751,5.2725,5.2778,5.2787,5.2827,5.2844,5.2819,5.2822,5.2935,5.2937,5.2938,5.2941,0,0,0,0,0,0,5.2556,5.257,5.2585,5.2624,5.2638,5.27,5.2693,5.2699,5.2719,5.272,5.2757,5.2762,5.2778,5.2822,5.2831,5.2848,5.2825,5.2934,5.2936,5.2938,5.2939,5.2942,5.2944,0,0,0,0,0,5.2552,5.2581,5.2586,5.2597,5.2658,5.2701,5.2709,5.2727,5.2721,5.2736,5.2758,5.2761,5.2841,5.2826,5.2836,5.2855,5.2933,5.2935,5.2938,5.2938,5.2941,5.2944,0,0,0,0,0,0,5.2541,5.2587,5.2592,5.2636,5.2665,5.2703,5.2723,5.273,5.276,5.2759,5.2779,5.2788,5.2828,5.2845,5.2828,5.2896,5.2886,5.2891,5.2883,5.2887,5.2889,5.2884,5.2828,0,0,0,0,0,5.2545,5.2576,5.2614,5.2649,5.2663,5.2691,5.271,5.2722,5.2752,5.2764,5.2788,5.2816,5.2848,5.2868,5.2899,5.2942,5.2951,5.296,5.2963,5.2965,5.2968,5.2994,5.2999,5.2947,5.2947,5.2947,0,0,5.2551,5.2579,5.2598,5.2647,5.2671,5.2703,5.2701,5.2734,5.2758,5.2768,5.2809,5.2828,5.2861,5.2904,5.2924,5.292,5.2985,5.2968,5.2969,5.2972,5.2997,5.3002,5.3006,5.2949,5.2948,5.2948,0,0,5.2579,5.2603,5.2636,5.2661,5.2698,5.2716,5.2724,5.2762,5.2776,5.2817,5.2827,5.2855,5.2908,5.2932,5.2951,5.2991,5.2996,5.3001,5.3014,5.3039,5.3043,5.3047,5.3062,5.3067,5.3004,5.3004,5.3004,0,5.2581,5.2631,5.2651,5.2686,5.2708,5.2721,5.2754,5.2776,5.2821,5.2835,5.2831,5.29,5.2923,5.2972,5.2982,5.2997,5.3007,5.2996,5.3041,5.3045,5.3049,5.3064,5.3069,5.3005,5.3004,5.3004,5.3004,0,5.2633,5.2667,5.2689,5.2734,5.2758,5.2791,5.2817,5.2839,5.285,5.2869,5.2912,5.294,5.2978,5.2991,5.3,5.3042,5.3039,5.3037,5.3028,5.3054,5.3068,5.3074,5.3005,5.3005,5.3005,5.3005,0,0,5.2655,5.2713,5.272,5.2742,5.2785,5.2811,5.2846,5.2884,5.2903,5.2934,5.2963,5.301,5.301,5.3032,5.3044,5.3066,5.3097,5.3062,5.3063,5.3069,5.3146,5.3148,5.3154,5.3101,5.3102,5.3103,5.3144,0,5.2688,5.2752,5.2772,5.2825,5.2857,5.2871,5.2901,5.2931,5.295,5.298,5.3001,5.3034,5.3031,5.3044,5.3066,5.3089,5.3113,5.3086,5.3129,5.313,5.312,5.3161,5.3162,5.3199,5.315,5.3151,5.3151,0,5.2736,5.277,5.2826,5.2866,5.2881,5.2908,5.2946,5.2974,5.3008,5.3021,5.3046,5.3058,5.3095,5.3084,5.3135,5.3116,5.3135,5.3149,5.315,5.3155,5.3142,5.3167,5.3211,5.3217,5.316,5.3159,5.3159,0,5.2748,5.2807,5.2849,5.2866,5.2915,5.2933,5.2954,5.2987,5.301,5.3043,5.3058,5.3094,5.3114,5.3142,5.3163,5.3153,5.3213,5.3203,5.3224,5.3224,5.3236,5.3235,5.3284,5.3247,5.3247,5.3247,5.3247,0,5.2783,5.2817,5.2855,5.2881,5.292,5.2943,5.2981,5.3002,5.3032,5.3062,5.3076,5.3103,5.313,5.3161,5.3177,5.3218,5.3226,5.3238,5.3242,5.3237,5.3236,5.325,5.3248,5.3249,5.3248,5.3248,5.3248,0,5.2803,5.283,5.2876,5.2919,5.2931,5.2958,5.2994,5.3019,5.304,5.3078,5.3088,5.312,5.3158,5.3182,5.3229,5.324,5.3285,5.3288,5.3274,5.3276,5.3297,5.3295,5.3357,5.3367,5.3322,5.3323,5.3323,0,5.2824,5.2851,5.2898,5.292,5.2941,5.2976,5.3,5.3024,5.3048,5.309,5.3111,5.315,5.3183,5.3242,5.3269,5.3306,5.331,5.333,5.3316,5.3311,5.3312,5.331,5.3314,5.3332,5.3332,5.3332,5.3333,0,5.286,5.2872,5.2907,5.2946,5.2975,5.3007,5.3039,5.3056,5.3086,5.3112,5.3152,5.3178,5.3227,5.3266,5.3306,5.3327,5.3335,5.3337,5.3344,5.3339,5.3331,5.3337,5.3281,5.3335,5.3335,5.3335,5.3335,5.3335,5.2882,5.2907,5.2944,5.2983,5.301,5.304,5.3067,5.3092,5.3126,5.3169,5.3181,5.3223,5.3258,5.3312,5.3334,5.3367,5.3365,5.3374,5.3377,5.3379,5.338,5.3326,5.3374,5.3374,5.3374,5.3374,5.3374,0,5.2919,5.2944,5.2979,5.3025,5.3055,5.3062,5.3098,5.3123,5.316,5.3192,5.3225,5.3271,5.331,5.3341,5.338,5.34,5.3405,5.341,5.3409,5.3414,5.338,5.337,5.3406,5.3406,5.3406,5.3406,5.3406,5.3406,5.2942,5.2986,5.3003,5.306,5.3085,5.3128,5.3148,5.3176,5.3202,5.3254,5.3286,5.3307,5.3339,5.3381,5.3417,5.3425,5.3439,5.3443,5.3452,5.342,5.3416,5.3413,5.3404,5.3446,5.3446,5.3484,5.3484,5.3485]}]]